Temp
-12 -12 -12 -11 -11 -12 -12 -12 -12 -11 -12 -12 -13 -14 -14 -14 -14 -14 -14 -14 -14 -14 -15 -15 -15 -16 -16 -16 -16 -16 -16 -16 -17 -17 -18 -19 -20 -21 -21 -21 -22 -22 -24 -24
-12 -13 -13 -12 -11 -12 -12 -13 -13 -13 -10 -13 -14 -14 -13 -14 -14 -15 -14 -14 -14 -15 -16 -16 -16 -16 -16 -16 -17 -17 -17 -17 -18 -18 -19 -20 -21 -21 -21 -22 -22 -25 -25 -25
-12 -14 -14 -12 -10 -12 -13 -13 -14 -13 -12 -13 -14 -14 -14 -14 -15 -15 -16 -16 -16 -16 -16 -16 -17 -17 -17 -17 -17 -17 -17 -18 -18 -19 -20 -21 -21 -22 -22 -24 -25 -25 -25 -24
-13 -14 -14 -11 -12 -12 -13 -13 -14 -13 -13 -14 -14 -14 -14 -15 -16 -16 -16 -16 -16 -16 -17 -17 -17 -17 -17 -17 -17 -17 -18 -19 -20 -20 -21 -21 -22 -22 -24 -25 -25 -25 -25 -24
-14 -14 -14 -12 -12 -13 -14 -12 -13 -14 -14 -15 -15 -14 -14 -15 -16 -16 -17 -17 -17 -17 -17 -17 -17 -17 -18 -18 -18 -18 -19 -20 -20 -21 -21 -22 -22 -24 -25 -25 -25 -25 -25 -25
-14 -14 -14 -13 -13 -14 -15 -13 -13 -15 -15 -15 -15 -14 -15 -16 -16 -16 -17 -17 -17 -17 -17 -17 -17 -17 -18 -18 -18 -19 -20 -20 -21 -22 -22 -23 -25 -26 -26 -25 -25 -25 -25 -25
-15 -15 -15 -14 -14 -15 -15 -13 -14 -14 -14 -15 -16 -16 -16 -16 -17 -17 -17 -17 -17 -17 -17 -17 -18 -18 -18 -19 -19 -20 -21 -21 -22 -22 -24 -26 -26 -26 -25 -25 -25 -25 -25 -24
-15 -15 -15 -14 -15 -15 -15 -14 -15 -15 -15 -16 -16 -16 -17 -17 -17 -17 -18 -18 -18 -18 -18 -18 -18 -19 -19 -20 -21 -22 -22 -22 -22 -25 -25 -26 -26 -25 -25 -25 -25 -25 -24 -24
-15 -15 -15 -15 -15 -15 -15 -15 -15 -15 -16 -17 -17 -17 -18 -18 -18 -18 -18 -18 -18 -18 -19 -19 -20 -21 -21 -22 -22 -22 -23 -24 -26 -26 -26 -26 -25 -25 -25 -25 -25 -25 -24 -24
-16 -15 -16 -16 -16 -16 -16 -16 -16 -16 -16 -17 -17 -18 -18 -18 -19 -19 -19 -19 -19 -20 -20 -21 -21 -22 -22 -22 -22 -23 -25 -26 -26 -26 -25 -25 -25 -25 -26 -25 -25 -25 -25 -25
-16 -16 -16 -17 -17 -17 -17 -17 -17 -17 -17 -18 -18 -18 -18 -18 -19 -19 -20 -20 -20 -21 -21 -22 -22 -22 -23 -23 -24 -26 -27 -26 -27 -26 -25 -25 -26 -26 -25 -25 -25 -25 -25 -25
-17 -17 -17 -17 -17 -18 -18 -18 -18 -18 -19 -19 -19 -19 -19 -19 -19 -19 -20 -21 -21 -21 -22 -22 -23 -23 -23 -25 -27 -27 -27 -27 -26 -26 -26 -26 -25 -26 -26 -25 -25 -25 -25 -25
-18 -18 -18 -18 -18 -18 -19 -19 -19 -19 -20 -20 -19 -19 -19 -20 -21 -20 -21 -21 -22 -22 -22 -23 -24 -24 -26 -27 -27 -28 -27 -27 -27 -26 -26 -26 -26 -26 -26 -25 -26 -25 -25 -25
-19 -19 -19 -19 -19 -19 -19 -20 -20 -20 -20 -20 -20 -20 -20 -21 -22 -22 -22 -23 -23 -23 -23 -24 -26 -27 -27 -28 -28 -28 -28 -27 -27 -27 -27 -27 -26 -26 -27 -26 -26 -26 -25 -25
-19 -19 -20 -20 -20 -20 -20 -21 -21 -21 -21 -21 -21 -21 -21 -22 -23 -23 -23 -23 -23 -24 -25 -27 -27 -28 -28 -28 -28 -28 -28 -27 -27 -27 -27 -27 -27 -27 -27 -27 -26 -26 -26 -26
-20 -20 -21 -21 -21 -21 -21 -22 -22 -22 -22 -22 -22 -22 -23 -23 -23 -23 -23 -23 -24 -26 -28 -28 -28 -28 -28 -28 -28 -28 -28 -28 -28 -28 -28 -27 -27 -27 -27 -27 -27 -27 -26 -26
-21 -21 -21 -22 -22 -22 -22 -23 -23 -23 -23 -23 -23 -23 -23 -23 -24 -24 -24 -26 -27 -28 -28 -28 -28 -28 -28 -28 -28 -28 -28 -28 -28 -28 -28 -27 -27 -27 -27 -27 -27 -27 -27 -27
-22 -23 -23 -23 -22 -23 -23 -23 -23 -24 -24 -24 -23 -24 -24 -24 -24 -25 -27 -28 -29 -29 -29 -29 -29 -28 -28 -29 -29 -29 -29 -28 -28 -28 -28 -28 -28 -28 -28 -27 -27 -27 -28 -27
-25 -24 -23 -24 -24 -24 -24 -24 -24 -24 -24 -24 -25 -25 -25 -26 -26 -28 -29 -29 -29 -29 -29 -29 -29 -29 -29 -29 -29 -29 -29 -29 -29 -29 -28 -28 -28 -28 -28 -28 -28 -28 -28 -28
-25 -25 -25 -25 -25 -25 -24 -24 -24 -25 -26 -26 -26 -27 -27 -27 -28 -29 -29 -29 -29 -29 -29 -29 -29 -29 -29 -29 -29 -29 -29 -29 -29 -29 -29 -29 -29 -29 -29 -29 -29 -28 -28 -28
-25 -25 -25 -25 -25 -25 -25 -26 -27 -27 -27 -27 -27 -28 -28 -28 -28 -29 -29 -29 -30 -29 -29 -29 -29 -29 -29 -29 -29 -29 -29 -29 -29 -29 -29 -29 -29 -29 -29 -29 -29 -29 -29 -29
-26 -25 -25 -26 -26 -27 -28 -28 -27 -27 -27 -28 -28 -28 -28 -28 -28 -28 -29 -29 -29 -29 -30 -30 -30 -30 -30 -30 -30 -30 -29 -30 -30 -30 -29 -29 -29 -29 -29 -29 -29 -29 -29 -29
-27 -27 -28 -28 -28 -28 -28 -28 -28 -28 -28 -28 -28 -28 -28 -28 -28 -28 -28 -28 -28 -29 -29 -30 -30 -30 -30 -30 -30 -30 -30 -30 -30 -30 -30 -30 -30 -30 -29 -29 -29 -29 -29 -29
-29 -28 -28 -28 -28 -28 -28 -28 -28 -28 -28 -28 -28 -28 -29 -29 -29 -29 -29 -29 -29 -29 -29 -30 -30 -30 -30 -30 -30 -30 -30 -30 -30 -30 -30 -30 -30 -30 -30 -30 -30 -30 -30 -30
-28 -28 -28 -28 -28 -28 -28 -28 -28 -28 -28 -29 -29 -29 -29 -29 -29 -29 -29 -29 -29 -29 -29 -29 -30 -30 -30 -31 -30 -30 -31 -31 -31 -31 -31 -31 -31 -31 -31 -30 -30 -30 -30 -30
-28 -28 -28 -28 -28 -28 -28 -28 -28 -29 -29 -29 -29 -29 -29 -29 -29 -29 -29 -29 -29 -29 -29 -30 -30 -30 -31 -31 -31 -31 -31 -31 -31 -31 -31 -31 -31 -31 -31 -31 -31 -31 -31 -31
-28 -28 -28 -28 -28 -28 -28 -29 -29 -29 -29 -29 -29 -29 -29 -29 -29 -29 -29 -29 -29 -30 -30 -30 -31 -31 -32 -32 -32 -32 -33 -33 -33 -33 -32 -32 -32 -32 -32 -32 -32 -32 -32 -32
Height
5699 5698 5698 5697 5699 5693 5690 5693 5690 5698 5690 5688 5693 5687 5682 5678 5673 5670 5667 5663 5660 5656 5651 5646 5640 5635 5629 5623 5616 5609 5602 5594 5588 5581 5572 5563 5554 5548 5541 5534 5529 5524 5522 5519
5684 5682 5682 5683 5686 5675 5678 5681 5675 5677 5673 5680 5675 5667 5669 5665 5661 5659 5656 5652 5646 5640 5636 5631 5626 5620 5613 5605 5599 5593 5587 5579 5571 5563 5556 5545 5536 5529 5523 5518 5513 5510 5510 5509
5668 5667 5665 5665 5670 5670 5669 5668 5665 5658 5664 5665 5658 5657 5654 5651 5649 5646 5641 5635 5631 5627 5622 5616 5611 5605 5597 5590 5583 5576 5569 5562 5554 5545 5536 5528 5520 5511 5503 5499 5498 5498 5501 5501
5651 5650 5643 5656 5657 5653 5655 5659 5654 5648 5648 5646 5642 5640 5637 5634 5633 5629 5625 5620 5616 5611 5606 5599 5593 5587 5581 5574 5567 5559 5553 5542 5532 5525 5518 5510 5502 5493 5486 5487 5489 5491 5492 5493
5634 5632 5632 5642 5641 5643 5638 5645 5644 5634 5635 5631 5625 5623 5623 5623 5618 5613 5610 5605 5599 5594 5589 5582 5576 5569 5564 5556 5547 5542 5535 5526 5517 5507 5499 5491 5481 5473 5472 5476 5480 5483 5484 5486
5620 5615 5616 5632 5628 5625 5621 5624 5630 5626 5621 5613 5608 5606 5606 5603 5602 5598 5595 5591 5586 5579 5572 5566 5560 5553 5546 5539 5533 5525 5515 5507 5499 5489 5479 5470 5463 5460 5462 5467 5472 5474 5476 5478
5606 5599 5600 5616 5611 5608 5602 5616 5611 5607 5604 5600 5594 5593 5588 5584 5584 5581 5578 5573 5568 5563 5556 5550 5543 5536 5531 5525 5516 5506 5498 5490 5481 5471 5462 5456 5453 5453 5456 5461 5464 5468 5469 5469
5592 5586 5585 5603 5593 5591 5591 5588 5590 5591 5589 5584 5578 5576 5573 5568 5566 5562 5558 5555 5552 5545 5539 5532 5526 5522 5515 5507 5499 5491 5482 5473 5463 5454 5449 5447 5448 5448 5452 5455 5459 5461 5462 5461
5574 5572 5577 5576 5576 5573 5573 5571 5571 5571 5571 5567 5564 5561 5557 5553 5549 5545 5541 5537 5533 5528 5522 5516 5510 5504 5499 5491 5482 5475 5465 5457 5450 5445 5443 5443 5444 5446 5448 5451 5453 5454 5454 5453
5556 5564 5563 5559 5559 5556 5554 5554 5553 5552 5552 5551 5546 5543 5541 5536 5532 5527 5524 5520 5516 5511 5507 5501 5494 5486 5479 5473 5466 5458 5450 5445 5442 5440 5440 5439 5440 5441 5443 5446 5448 5448 5448 5447
5537 5547 5547 5544 5542 5539 5538 5536 5538 5534 5534 5533 5528 5524 5523 5520 5515 5513 5508 5504 5499 5495 5491 5487 5480 5471 5462 5456 5449 5443 5439 5437 5435 5434 5434 5433 5435 5437 5439 5440 5442 5443 5444 5443
5521 5527 5525 5531 5526 5524 5521 5520 5518 5518 5515 5513 5509 5506 5504 5503 5500 5494 5491 5488 5484 5480 5476 5470 5463 5455 5448 5441 5438 5434 5431 5429 5428 5428 5427 5428 5429 5430 5433 5435 5436 5437 5439 5440
5502 5506 5507 5510 5509 5509 5507 5503 5501 5500 5498 5494 5491 5489 5487 5487 5482 5478 5474 5471 5468 5464 5458 5451 5446 5438 5433 5431 5429 5426 5423 5422 5421 5420 5421 5423 5424 5426 5428 5430 5430 5432 5434 5435
5484 5488 5490 5492 5491 5490 5489 5486 5483 5481 5479 5477 5473 5471 5469 5471 5468 5463 5458 5455 5452 5447 5441 5436 5431 5427 5424 5422 5421 5419 5418 5416 5416 5415 5415 5416 5418 5420 5422 5424 5425 5427 5428 5430
5468 5471 5473 5474 5473 5472 5471 5469 5467 5465 5461 5459 5456 5453 5452 5452 5451 5448 5445 5440 5434 5430 5426 5423 5421 5419 5417 5415 5414 5414 5412 5412 5411 5411 5411 5412 5412 5413 5415 5417 5418 5420 5422 5423
5453 5454 5457 5455 5454 5453 5452 5452 5451 5449 5446 5443 5441 5439 5436 5436 5435 5432 5428 5423 5418 5415 5414 5414 5413 5412 5410 5409 5408 5407 5407 5406 5405 5406 5406 5405 5406 5408 5409 5410 5411 5412 5414 5415
5433 5439 5440 5438 5437 5436 5435 5434 5432 5433 5431 5429 5427 5425 5422 5420 5418 5414 5410 5407 5406 5405 5406 5405 5405 5404 5403 5402 5402 5401 5400 5399 5398 5398 5399 5400 5400 5400 5401 5402 5403 5404 5405 5406
5413 5417 5421 5422 5423 5422 5419 5419 5417 5417 5415 5414 5413 5411 5407 5403 5401 5399 5398 5397 5397 5397 5398 5397 5396 5396 5396 5395 5395 5394 5393 5391 5390 5390 5390 5391 5391 5392 5392 5393 5393 5394 5395 5396
5400 5402 5405 5408 5409 5407 5406 5405 5404 5403 5402 5399 5398 5396 5393 5390 5388 5388 5388 5388 5388 5388 5387 5387 5387 5388 5388 5388 5388 5387 5386 5384 5383 5382 5382 5382 5382 5382 5383 5383 5384 5385 5385 5386
5389 5390 5392 5394 5394 5394 5394 5393 5391 5391 5389 5387 5385 5384 5382 5380 5379 5378 5378 5378 5378 5377 5376 5377 5377 5378 5378 5379 5378 5378 5377 5377 5376 5375 5374 5374 5374 5374 5373 5373 5373 5373 5374 5375
5378 5379 5380 5381 5381 5383 5382 5381 5380 5380 5378 5377 5375 5373 5371 5369 5368 5367 5366 5366 5365 5365 5365 5365 5366 5366 5366 5367 5367 5368 5368 5368 5367 5367 5366 5366 5366 5366 5365 5364 5364 5364 5364 5364
5369 5370 5370 5370 5371 5371 5371 5371 5370 5368 5367 5365 5364 5362 5360 5359 5357 5355 5354 5353 5352 5351 5351 5351 5352 5352 5352 5353 5354 5355 5356 5356 5357 5357 5357 5357 5357 5357 5357 5357 5356 5356 5355 5355
5360 5360 5361 5362 5363 5362 5362 5361 5360 5358 5356 5355 5353 5351 5349 5348 5346 5344 5342 5338 5338 5336 5335 5335 5335 5336 5336 5338 5339 5340 5341 5342 5344 5344 5345 5346 5346 5347 5347 5348 5348 5348 5347 5347
5354 5354 5354 5354 5354 5353 5352 5351 5350 5348 5346 5344 5341 5338 5335 5333 5331 5328 5326 5324 5321 5319 5317 5316 5316 5317 5318 5319 5321 5323 5325 5327 5328 5330 5331 5332 5333 5334 5335 5336 5337 5338 5338 5338
5347 5347 5347 5347 5346 5344 5343 5341 5338 5335 5332 5328 5325 5322 5319 5316 5315 5313 5309 5305 5303 5301 5299 5298 5298 5298 5299 5300 5301 5303 5306 5308 5311 5313 5315 5317 5318 5320 5321 5323 5324 5325 5326 5327
5341 5341 5340 5339 5337 5335 5332 5328 5325 5321 5317 5314 5311 5306 5303 5299 5296 5293 5290 5286 5283 5281 5279 5278 5278 5279 5279 5281 5282 5285 5287 5290 5292 5294 5297 5299 5301 5303 5305 5307 5309 5311 5312 5314
5335 5333 5331 5329 5326 5322 5318 5314 5311 5307 5302 5298 5294 5289 5285 5280 5276 5271 5268 5266 5263 5260 5258 5257 5258 5259 5260 5262 5265 5267 5270 5273 5276 5278 5281 5283 5285 5287 5288 5291 5293 5295 5297 5299
Wind_Speed
52 53 51 52 52 53 53 52 53 47 49 52 47 49 55 54 53 54 53 56 58 58 58 60 62 65 65 67 70 73 72 73 73 75 74 74 73 73 76 79 71 54 45 38
59 57 56 57 55 61 61 54 55 51 57 49 51 55 57 53 53 54 54 56 57 59 60 63 66 67 66 70 71 73 73 72 75 76 76 76 77 80 83 79 53 46 38 34
57 57 59 63 62 57 55 53 52 57 53 53 57 57 57 56 53 52 55 57 58 60 62 64 64 66 70 71 72 71 74 75 76 78 76 78 82 86 76 50 37 30 30 25
59 56 61 58 53 55 52 50 52 56 54 56 54 56 57 55 55 58 57 58 60 63 63 64 68 70 71 70 70 73 73 75 77 78 80 84 88 83 54 37 30 29 26 26
59 62 59 48 49 49 50 47 49 58 55 54 59 58 58 59 60 58 58 60 61 62 64 67 69 70 68 69 72 72 74 75 78 82 86 89 80 53 37 33 29 27 25 27
60 61 65 51 53 54 56 55 54 51 51 57 60 59 56 59 58 57 59 60 61 63 66 68 67 67 70 71 73 75 76 79 83 87 86 69 50 33 26 30 29 27 25 26
60 65 63 52 57 56 63 55 55 60 60 59 58 56 57 58 59 58 56 58 61 65 66 67 67 69 70 72 73 76 79 83 87 83 60 41 28 24 26 28 29 28 27 26
63 64 66 59 62 64 64 68 63 61 60 56 54 53 55 55 57 57 56 59 62 65 68 68 67 68 69 70 73 78 83 85 75 52 35 22 23 24 22 23 26 26 23 24
66 66 62 64 65 67 69 67 65 63 58 55 53 52 54 53 54 55 57 60 64 68 67 67 66 65 67 72 76 81 78 60 40 28 19 19 20 22 25 24 22 21 19 19
65 62 64 67 68 66 63 64 62 59 56 57 55 55 54 55 55 57 60 63 65 64 64 63 63 66 71 77 80 72 54 38 28 24 25 22 23 22 20 21 22 18 19 15
67 63 62 61 61 60 60 61 61 61 62 59 55 56 60 59 58 60 62 63 63 63 61 62 66 71 75 77 59 44 37 28 25 22 22 24 23 22 24 22 21 15 14 11
65 63 66 62 59 61 66 66 64 63 59 56 57 58 58 57 59 60 62 62 61 61 61 65 70 74 72 51 38 34 31 27 25 25 22 15 24 25 23 23 20 14 14 12
66 65 63 64 67 69 66 65 67 61 58 58 59 58 57 59 59 60 59 60 60 62 67 70 72 59 41 35 30 27 27 25 26 26 26 26 17 22 21 20 18 17 17 14
67 64 66 70 70 68 65 69 61 57 57 56 54 55 56 58 60 59 59 59 63 67 69 64 43 32 31 27 27 26 24 19 18 15 15 18 20 23 25 21 21 22 20 18
71 69 72 73 70 67 71 59 58 59 57 54 54 54 55 58 58 58 60 64 66 65 51 32 26 25 23 23 24 22 21 20 21 14 18 18 17 18 25 27 25 23 24 24
77 70 69 68 66 66 59 57 58 53 51 50 52 54 55 55 59 62 63 61 54 39 28 25 24 24 24 23 22 21 22 23 24 19 18 19 18 21 24 24 24 24 29 30
63 70 70 60 61 60 60 55 51 50 49 49 51 52 55 57 59 57 50 41 33 28 27 25 24 23 23 22 20 20 21 23 25 23 27 29 30 28 26 24 24 27 30 32
55 55 56 59 58 56 49 47 46 47 48 50 52 53 54 52 47 42 35 30 28 28 28 27 25 25 25 24 23 23 22 20 22 24 25 29 30 29 29 31 32 33 32 32
51 51 52 53 47 43 42 44 45 48 48 48 47 46 44 42 37 33 30 30 31 31 30 30 30 29 28 26 23 20 18 19 18 19 21 23 27 30 33 33 35 37 38 33
35 34 35 35 36 38 41 43 45 42 40 41 41 40 38 35 33 33 34 33 33 33 34 35 34 34 33 31 29 27 26 25 22 19 18 18 19 20 24 29 31 34 38 39
25 28 33 36 38 39 38 36 36 37 38 38 37 36 35 34 35 35 35 36 38 39 40 39 38 38 38 36 36 35 32 29 26 24 21 21 21 20 19 20 22 23 25 27
29 31 30 30 30 31 32 34 35 34 33 33 32 32 31 31 32 33 36 38 41 44 45 44 42 41 42 42 40 40 39 37 35 33 33 27 25 26 26 24 22 22 23 25
20 21 23 25 28 30 29 28 28 27 28 29 30 31 32 32 32 32 35 39 39 43 46 48 50 50 48 45 44 44 44 42 42 41 39 37 34 32 30 30 29 26 25 25
20 23 25 24 23 23 24 26 29 31 33 34 35 36 38 39 39 41 42 44 45 46 47 48 49 50 53 55 53 51 50 49 47 46 44 42 41 38 36 36 35 31 29 28
19 19 20 21 23 26 29 33 35 36 38 39 40 41 43 45 46 46 49 51 50 49 49 50 50 49 49 50 52 55 57 57 55 53 52 50 48 46 44 42 40 38 35 35
18 21 24 26 28 31 33 35 38 39 40 41 43 46 48 49 51 52 52 52 52 52 52 52 52 52 51 51 50 50 50 50 50 51 52 53 53 52 51 49 47 45 43 42
22 25 26 27 30 33 35 37 38 40 43 45 45 49 52 52 52 52 53 53 53 53 53 53 53 52 51 49 48 47 46 46 46 45 45 44 44 45 47 47 48 48 47 47
Wind_Direction
266 270 268 271 273 270 267 275 279 289 286 287 291 285 282 281 281 284 286 288 291 292 291 292 293 293 293 292 290 292 293 293 296 297 299 300 299 300 301 302 309 294 282 276
268 267 268 271 272 266 272 278 284 286 285 296 289 280 284 282 282 282 286 289 290 291 291 291 291 292 291 290 288 290 292 294 297 299 300 300 301 300 301 305 293 271 277 272
267 267 265 268 274 272 273 276 283 282 290 284 286 286 282 278 280 285 287 286 287 287 287 287 288 288 287 286 289 291 293 297 298 299 300 299 299 301 305 290 273 263 266 262
268 266 260 273 272 268 272 277 280 282 286 286 285 283 282 280 284 288 286 287 290 289 287 285 285 286 287 290 290 292 297 299 298 298 299 299 301 303 292 272 263 258 256 261
264 267 268 267 273 275 275 275 282 285 289 284 282 282 281 280 283 283 287 289 286 284 283 283 284 286 287 288 292 296 296 295 297 299 300 302 303 295 280 252 251 246 253 261
262 265 268 276 274 275 279 280 283 287 281 279 281 285 283 279 279 281 286 284 282 281 280 282 285 288 289 291 293 293 295 297 299 299 306 303 297 278 256 240 243 248 256 258
264 272 275 274 279 277 277 287 280 281 283 284 286 286 283 281 280 285 285 282 283 284 284 284 285 285 288 290 293 295 297 298 301 307 303 296 282 264 234 240 241 250 256 259
267 271 268 280 281 278 283 283 282 285 284 284 285 284 281 282 285 286 283 282 281 280 280 283 285 287 289 292 294 295 298 303 306 304 294 268 284 238 233 244 248 252 259 273
271 273 274 275 277 279 279 282 284 284 283 284 286 282 284 287 287 282 281 279 279 279 282 286 289 291 292 293 294 298 303 303 302 300 259 268 254 250 250 240 249 252 268 275
270 271 274 275 276 278 281 282 281 282 282 285 286 283 286 289 283 282 280 278 279 281 284 288 290 292 293 295 300 303 300 298 293 285 257 268 259 253 231 240 248 264 272 262
275 278 276 275 277 278 279 279 279 280 284 286 282 283 289 290 286 280 278 277 279 282 286 289 291 293 296 301 299 295 295 290 289 271 258 251 234 247 245 241 244 254 263 248
272 271 273 274 271 273 278 279 277 284 285 281 279 284 287 282 276 276 276 277 281 284 288 290 293 297 300 295 291 292 293 289 287 262 269 278 265 232 237 240 239 248 255 254
270 270 270 271 274 275 278 274 282 284 282 280 283 287 281 275 277 278 280 281 284 288 290 293 297 296 289 287 286 297 301 284 285 266 256 265 268 238 241 240 235 238 246 245
263 261 264 273 274 275 269 280 279 279 282 283 283 280 276 277 278 280 282 285 286 289 294 295 288 283 288 285 285 292 289 281 277 271 261 252 250 249 242 241 236 237 241 245
260 258 267 266 263 262 277 273 274 279 280 281 279 276 276 276 277 280 282 285 291 293 289 278 275 281 287 290 289 282 276 262 261 256 271 254 247 249 250 249 246 246 252 248
263 265 262 265 269 274 268 274 276 273 272 272 274 275 275 276 278 282 289 291 289 284 270 265 270 278 283 283 287 283 274 260 264 266 269 266 267 263 265 262 254 258 256 253
260 255 262 265 265 265 273 272 271 270 270 272 273 274 275 279 286 290 287 284 279 266 263 262 268 272 277 280 286 289 278 271 268 264 245 254 264 265 260 255 259 256 255 260
259 256 256 258 263 267 265 267 269 272 273 273 276 282 287 290 287 284 281 273 267 262 260 259 266 270 274 274 276 280 285 291 275 264 261 256 254 251 250 256 256 256 254 254
255 255 256 262 263 265 266 268 271 273 278 284 288 289 287 284 281 278 277 271 265 260 261 263 265 266 267 268 266 268 277 286 291 282 269 262 262 258 256 261 261 263 261 258
252 253 256 260 264 269 272 274 277 282 284 283 282 280 279 277 276 273 270 269 268 266 264 263 263 264 263 262 258 259 269 277 277 280 285 278 271 270 268 267 265 262 263 264
258 262 266 269 270 271 275 280 280 279 278 278 277 276 276 276 275 274 271 269 269 267 266 264 263 262 261 261 259 259 263 268 272 271 270 278 283 282 282 283 282 278 273 268
264 261 265 270 275 276 274 276 279 279 277 277 277 278 278 278 278 278 276 273 269 266 264 263 263 262 260 259 259 259 259 263 267 271 269 270 274 281 283 281 281 283 281 276
271 271 271 271 273 275 276 277 279 281 283 284 286 286 285 282 281 281 282 281 279 274 270 266 263 261 260 259 258 259 259 260 264 266 267 269 271 272 276 277 276 277 277 278
272 274 277 277 277 278 281 284 287 289 290 289 287 285 283 282 283 283 282 281 279 275 272 269 266 264 261 260 258 258 259 261 262 264 265 266 268 269 269 271 271 268 271 274
280 278 279 282 285 287 288 288 289 288 287 286 285 284 283 284 284 283 284 283 280 276 273 270 267 264 262 260 259 259 259 260 261 261 262 263 264 265 266 266 264 261 264 267
282 283 284 286 286 287 286 285 286 288 288 287 287 286 286 286 286 285 283 280 279 276 273 269 266 264 262 260 259 258 258 259 259 260 260 260 261 260 260 259 259 259 260 262
285 288 291 291 290 291 292 293 293 292 291 291 290 288 288 288 287 284 282 281 278 275 272 269 266 263 261 260 258 256 255 255 256 257 258 258 258 259 258 257 257 258 258 259